EW2835 Weather Reports


time (UTC)temp
F
wind
direction
speed
knots
gust
knots
rain 1hr
in
rain 24hr
in
rain mn
in
humidity
%
barometer
mb
20260506044506 52 35 2.6 7.8 0.04 0.39 0.38 97 1004.2
20260506043005 52 342 1.7 7.0 0.05 0.37 0.36 97 1004.3
20260506041503 52 52 0.0 3.5 0.06 0.36 0.35 97 1004.4
20260506040001 52 12 0.9 3.5 0.06 0.35 0.35 97 1004.6
20260506034600 52 76 0.9 4.3 0.07 0.35 0.34 97 1004.7
20260506033100 52 76 0.9 2.6 0.07 0.32 0.31 97 1004.8
20260506031556 52 95 0.0 3.5 0.09 0.31 0.30 96 1004.9
20260506030054 52 338 1.7 6.1 0.09 0.28 0.28 96 1005.1
20260506024551 52 71 0.0 4.3 0.10 0.28 0.27 96 1005.2
20260506023102 52 33 0.9 4.3 0.10 0.25 0.24 96 1005.4
20260506021608 53 28 0.0 2.6 0.09 0.22 0.21 96 1005.5
20260506020046 53 13 0.9 3.5 0.11 0.20 0.19 96 1005.6
20260506014544 53 322 0.9 3.5 0.11 0.17 0.17 96 1005.7
20260506013053 53 7 0.0 7.0 0.09 0.15 0.14 95 1005.7
20260506011546 53 24 0.0 5.2 0.08 0.13 0.12 95 1005.7
20260506010039 53 50 1.7 5.2 0.06 0.09 0.08 95 1005.9
20260506004535 53 49 1.7 5.2 0.03 0.06 0.06 95 1006.1
20260506003033 53 76 0.9 5.2 0.03 0.06 0.05 94 1006.2
20260506001535 54 34 0.9 7.8 0.02 0.05 0.04 94 1006.4
20260506000028 54 86 0.9 5.2 0.02 0.03 0.02 94 1006.7
20260505234527 54 42 0.9 4.3 0.02 0.03 0.02 93 1006.7
20260505233027 54 359 0.9 4.3 0.02 0.02 0.02 93 1006.9
20260505231536 54 63 1.7 5.2 0.02 0.02 0.02 92 1007.0
20260505230025 54 92 2.6 7.0 0.01 0.02 0.01 91 1007.0
20260505224518 55 69 2.6 7.8 0.01 0.02 0.01 89 1007.2
20260505223017 55 61 1.7 7.0 0.00 0.01 0.00 88 1007.2
20260505221515 55 313 0.9 7.8 0.00 0.01 0.00 87 1007.2
20260505220012 55 53 0.9 7.0 0.00 0.01 0.00 87 1007.3
20260505214510 56 61 1.7 9.6 0.00 0.01 0.01 87 1007.2
20260505213015 56 333 0.9 7.8 0.00 0.01 0.01 86 1007.1
20260505211510 56 14 2.6 7.8 0.00 0.01 0.01 86 1007.2
20260505210008 57 63 0.9 4.3 0.00 0.01 0.01 86 1007.5
20260505204506 57 90 1.7 7.0 0.00 0.01 0.01 85 1007.5
20260505203004 58 360 1.7 8.7 0.00 0.01 0.01 85 1007.5
20260505201503 58 24 1.7 7.0 0.00 0.01 0.01 84 1007.4
20260505200002 58 67 2.6 8.7 0.00 0.01 0.01 83 1007.3
20260505194501 59 23 2.6 9.6 0.00 0.01 0.01 82 1007.2
20260505193100 59 328 1.7 7.8 0.00 0.01 0.01 82 1007.3
20260505191612 60 61 1.7 7.8 0.00 0.01 0.01 81 1007.3
20260505184559 61 59 1.7 8.7 0.00 0.01 0.01 79 1007.1
20260505183058 62 15 2.6 8.7 0.00 0.01 0.01 78 1007.0
20260505181557 62 92 1.7 7.8 0.00 0.01 0.01 77 1007.0
20260505174604 63 48 0.9 6.1 0.00 0.01 0.01 75 1007.1
20260505173057 64 50 0.9 4.3 0.00 0.01 0.01 74 1007.0
20260505171553 64 43 1.7 7.8 0.00 0.01 0.01 73 1007.1
20260505170107 64 27 0.0 5.2 0.00 0.01 0.01 74 1007.1
20260505164553 64 323 0.9 6.1 0.00 0.01 0.01 73 1007.2
20260505163049 65 345 1.7 5.2 0.00 0.01 0.01 72 1007.2
20260505153042 66 25 1.7 6.1 0.00 0.01 0.01 70 1007.5
20260505151556 66 347 1.7 7.8 0.00 0.01 0.01 69 1007.6
20260505124528 68 308 0.0 6.1 0.00 0.01 0.01 67 1008.3
20260505123025 68 312 2.6 6.1 0.00 0.01 0.01 64 1008.4
20260505121523 67 306 1.7 4.3 0.00 0.01 0.01 67 1008.5
20260505120022 67 225 0.0 4.3 0.00 0.01 0.01 68 1008.5
20260505114519 66 254 0.0 4.3 0.00 0.01 0.01 68 1008.6
20260505113051 65 327 0.9 4.3 0.00 0.01 0.01 71 1008.7
20260505111547 65 282 0.0 4.3 0.00 0.01 0.01 76 1008.9
20260505101541 63 21 0.0 1.7 0.00 0.01 0.01 80 1009.1
20260505100035 62 11 0.9 3.5 0.00 0.01 0.01 79 1009.2
20260505094536 63 184 0.0 2.6 0.00 0.01 0.01 79 1009.2
20260505093040 62 345 0.9 3.5 0.00 0.01 0.01 80 1009.2
20260505091530 62 51 0.0 1.7 0.00 0.01 0.01 80 1009.2
20260505090028 61 26 0.0 2.6 0.00 0.01 0.01 83 1009.3
20260505084527 61 86 0.9 3.5 0.00 0.01 0.01 81 1009.3
20260505083027 61 176 0.0 2.6 0.00 0.01 0.01 85 1009.4
20260505081529 60 86 0.0 2.6 0.00 0.01 0.01 83 1009.5
20260505080020 59 31 0.0 2.6 0.00 0.01 0.01 84 1009.5
20260505074519 59 86 0.9 2.6 0.00 0.01 0.01 83 1009.6
20260505073017 59 90 0.0 2.6 0.00 0.01 0.01 85 1009.7
20260505071515 58 64 1.7 4.3 0.00 0.01 0.01 84 1009.6
20260505070015 59 92 0.9 5.2 0.00 0.01 0.01 86 1009.4
20260505064511 58 42 2.6 7.0 0.00 0.01 0.01 86 1009.5
20260505063012 58 55 1.7 5.2 0.00 0.01 0.01 87 1009.4
20260505061507 58 63 3.5 7.8 0.00 0.01 0.01 87 1009.5
20260505060009 57 55 2.6 5.2 0.01 0.01 0.01 88 1009.7
20260505054502 57 46 0.9 3.5 0.01 0.01 0.01 88 1009.8
20260505053107 57 54 0.9 3.5 0.01 0.01 0.01 88 1009.8
20260505051556 57 50 0.0 3.5 0.01 0.01 0.01 87 1009.7